FLOCK 4Q 29

导读

FLOCK 4Q 29是美国Planet Labs公司Flock卫星星座中的一颗光学遥感卫星,于2023年11月11日发射升空,属于3U规格的微小卫星。该卫星搭载2900万像素传感器,在约475公里轨道高度可获取3.7米地面分辨率的观测影像,配备多光谱波段,主要用于补充地球观测星座,可为农业、林业等领域提供高质量对地观测数据服务。

基本信息
目录编号:
58304
目录名称:
FLOCK 4Q 29
国际标识:
2023-174BA
轨道中心:
EARTH
卫星名称:
FLOCK 4Q 29
卫星全名:
--
卫星状态:
在轨 (已飞行943 天)
发射日期:
2023-11-11 UTC
国别 :
美国 (US)
星等 :
--
轨道信息
数据来源 国际轨道数据
星历时间: 2026-06-11T13:40:47+0800
14小时前
查看轨道信息
半长轴: 6778.369km
偏心率: 0.0006158
轨道倾角: 97.393°
近地点辐角 157.897°
升交点赤经 253.772°
平近点角 202.255°
近地点: 396.057km
远地点: 404.407km
周期: 92.565分钟
每日圈数: 15.556611
详细信息
使用方式:
暂无
2D轨道图
3D轨道图
轨道高度分析图
轨道倾角分析图
轨道综合分析图
查看轨道综合分析图